Waarnemingen

Advertentie
Mijn weer
Berus, Duitsland (10704): temperatuur & dauwpunt: 23.03.2017 01:00:00 - 29.03.2017 01:00:00 (CEST)Berus, Duitsland (10704): temperatuur 5cm & temperatuur -5cm: 23.03.2017 01:00:00 - 29.03.2017 01:00:00 (CEST)Berus, Duitsland (10704): temperatuur -20cm & temperatuur -100cm: 23.03.2017 01:00:00 - 29.03.2017 01:00:00 (CEST)Berus, Duitsland (10704): windsnelheid & windstoten: 23.03.2017 01:00:00 - 29.03.2017 01:00:00 (CEST)Berus, Duitsland (10704): windrichting: 23.03.2017 01:00:00 - 29.03.2017 01:00:00 (CEST)Berus, Duitsland (10704): luchtdruk: 23.03.2017 01:00:00 - 29.03.2017 01:00:00 (CEST)Berus, Duitsland (10704): zicht: 23.03.2017 01:00:00 - 29.03.2017 01:00:00 (CEST)Berus, Duitsland (10704): Zonneschijnduur: 23.03.2017 01:00:00 - 29.03.2017 01:00:00 (CEST)Berus, Duitsland (10704): neerslag: 23.03.2017 01:00:00 - 29.03.2017 01:00:00 (CEST)
Datum & Tijd tt [°C] td [°C] tt 5cm [°C] tt -5cm [°C] tt -20cm [°C] tt -100cm [°C] ff [km/u] ff [kn] fx [km/u] fx [kn] dd ppp [hPa] vv [km] sd [min] rr [mm]
29.03.2017 01:00:00 9,8 6,2 7,5 10,1 11,5 8,0 13 7 20 11 ZW 1026,5 50 0 0,0
29.03.2017 00:00:00 11,3 6,1 9,3 10,7 11,9 8,0 19 10 28 15 WZW 1025,8 70 0 0,0
28.03.2017 23:00:00 12,2 6,7 10,5 11,5 12,2 8,0 20 11 32 18 WZW 1025,3 44 0 0,0
28.03.2017 22:00:00 13,6 6,3 11,9 12,4 12,5 8,0 23 12 35 19 WZW 1024,5 29 0 0,0
28.03.2017 21:00:00 14,5 6,4 12,7 13,5 12,8 8,0 23 12 39 21 WZW 1023,9 29 0 0,0
28.03.2017 20:00:00 15,8 6,7 14,2 15,1 13,0 8,0 22 12 35 19 WZW 1022,8 40 39 0,0
28.03.2017 19:00:00 18,2 5,8 18,5 16,9 12,9 8,0 18 10 34 18 WZW 1022,0 69 36 0,0
28.03.2017 18:00:00 18,0 6,4 18,0 18,1 12,7 8,0 18 10 27 15 ZW 1021,8 56 19 0,0
28.03.2017 17:00:00 19,5 6,7 22,3 19,8 12,1 7,9 19 10 30 16 ZZW 1021,7 39 56 0,0
28.03.2017 16:00:00 19,9 7,0 22,4 19,6 11,4 7,9 13 7 32 17 ZZW 1021,7 43 60 0,0
28.03.2017 15:00:00 19,0 6,5 21,4 18,9 10,6 7,9 19 11 26 14 ZW 1022,2 36 60 0,0
28.03.2017 14:00:00 18,7 7,4 21,5 17,5 9,8 7,9 14 8 28 15 ZZW 1022,5 35 60 0,0
28.03.2017 13:00:00 17,7 7,6 20,7 15,4 9,0 7,9 16 9 29 16 ZW 1022,8 31 60 0,0
28.03.2017 12:00:00 15,3 6,5 18,5 12,8 8,4 7,9 11 6 18 10 ZZW 1023,1 31 60 0,0
28.03.2017 11:00:00 13,2 6,2 16,9 10,2 8,0 7,9 8 4 13 7 ZZW 1023,0 24 60 0,0
28.03.2017 10:00:00 10,9 5,2 14,9 7,7 7,9 7,9 7 4 10 6 ZZW 1023,1 27 60 0,0
28.03.2017 09:00:00 8,9 4,4 11,4 6,0 8,0 7,9 8 4 13 7 Z 1023,2 19 52 0,0
28.03.2017 08:00:00 6,9 3,3 4,0 5,6 8,2 7,9 10 5 13 7 ZZO 1023,2 24 0 0,0
28.03.2017 07:00:00 7,7 2,9 4,0 5,8 8,5 7,9 11 6 14 7 ZO 1022,8 27 0 0,0
28.03.2017 06:00:00 7,1 1,9 2,9 6,1 8,7 7,9 5 3 8 4 O 1022,7 18 0 0,0
28.03.2017 05:00:00 8,8 1,3 3,2 6,6 9,0 7,9 6 3 10 5 ZZO 1022,3 30 0 0,0
28.03.2017 04:00:00 9,4 0,7 4,0 7,0 9,3 7,9 7 4 8 5 ZO 1022,4 34 0 0,0
28.03.2017 03:00:00 10,6 0,9 4,4 7,4 9,6 7,9 6 4 9 5 ZO 1022,2 36 0 0,0
28.03.2017 02:00:00 10,9 0,9 6,3 7,8 9,9 7,9 7 4 10 5 O 1022,2 44 0 0,0
28.03.2017 01:00:00 11,2 1,4 5,6 8,4 10,3 7,9 6 4 9 5 ONO 1022,0 35 0 0,0
28.03.2017 00:00:00 11,7 1,7 5,6 9,0 10,6 7,9 6 4 10 6 ONO 1021,9 31 0 0,0
27.03.2017 23:00:00 12,6 1,6 7,3 9,8 11,0 7,9 6 3 11 6 O 1021,7 51 0 0,0
27.03.2017 22:00:00 13,1 1,5 8,8 10,8 11,3 7,9 10 5 16 9 Z 1021,6 55 0 0,0
27.03.2017 21:00:00 13,9 1,5 9,2 12,0 11,6 7,8 7 4 16 9 ZO 1021,1 69 0 0,0
27.03.2017 20:00:00 14,9 1,4 10,5 13,7 11,8 7,8 7 4 14 8 ZZO 1020,4 70 44 0,0
27.03.2017 19:00:00 16,5 1,5 16,9 15,6 11,6 7,8 11 6 18 10 ZZO 1020,1 60 60 0,0
27.03.2017 18:00:00 17,0 1,8 19,0 17,0 11,3 7,8 11 6 23 13 ZZO 1020,0 47 60 0,0
27.03.2017 17:00:00 17,9 1,8 20,3 17,8 10,8 7,8 10 5 25 14 Z 1020,1 36 60 0,0
27.03.2017 16:00:00 16,2 -0,5 18,1 17,9 10,1 7,8 14 7 29 16 O 1020,6 44 60 0,0
27.03.2017 15:00:00 15,4 -0,9 17,9 17,1 9,3 7,8 14 8 25 13 O 1021,3 30 60 0,0
27.03.2017 14:00:00 15,4 -0,4 17,9 15,5 8,5 7,8 13 7 29 16 O 1021,7 40 60 0,0
27.03.2017 13:00:00 13,4 -1,6 16,1 13,2 7,7 7,8 16 9 29 16 NO 1022,2 36 60 0,0
27.03.2017 12:00:00 11,6 -2,2 13,8 10,5 7,2 7,8 16 8 28 15 NO 1022,5 35 60 0,0
27.03.2017 11:00:00 10,2 -1,7 12,6 8,0 6,9 7,8 14 8 31 17 NO 1022,8 29 60 0,0
27.03.2017 10:00:00 7,7 -1,6 9,6 5,6 6,9 7,8 16 8 26 14 ONO 1023,2 35 60 0,0
27.03.2017 09:00:00 5,5 -0,5 6,7 4,2 7,1 7,8 15 8 21 11 NO 1023,7 18 51 0,0
27.03.2017 08:00:00 4,1 -0,2 2,0 4,1 7,3 7,8 17 9 24 13 NO 1023,6 28 0 0,0
27.03.2017 07:00:00 4,6 0,1 2,0 4,5 7,6 7,8 15 8 20 11 NO 1023,2 29 0 0,0
27.03.2017 06:00:00 5,3 0,4 2,6 4,9 7,9 7,8 16 8 20 11 NO 1022,8 30 0 0,0
27.03.2017 05:00:00 5,6 0,6 2,9 5,3 8,2 7,8 13 7 21 11 NO 1022,7 28 0 0,0
27.03.2017 04:00:00 6,2 0,8 3,7 5,7 8,5 7,8 16 8 18 10 NO 1022,6 30 0 0,0
27.03.2017 03:00:00 6,6 1,1 4,0 6,2 8,8 7,8 16 9 21 11 NO 1022,8 31 0 0,0
27.03.2017 02:00:00 7,2 1,0 4,6 6,7 9,1 7,8 16 9 22 12 NO 1023,0 35 0 0,0
27.03.2017 01:00:00 7,9 1,0 5,7 7,2 9,5 7,8 16 9 20 11 NO 1023,1 38 0 0,0
27.03.2017 00:00:00 7,7 0,6 5,0 7,8 9,9 7,8 14 8 17 9 NO 1023,3 40 0 0,0
26.03.2017 23:00:00 8,9 0,4 6,5 8,6 10,2 7,8 14 7 18 10 NO 1023,1 39 0 0,0
26.03.2017 22:00:00 9,6 0,5 6,9 9,6 10,6 7,8 15 8 22 12 NO 1022,8 39 0 0,0
26.03.2017 21:00:00 10,4 0,8 8,1 10,8 11,0 7,8 17 9 25 14 NO 1022,3 38 0 0,0
26.03.2017 20:00:00 11,8 0,7 10,0 12,5 11,2 7,8 19 10 35 19 NO 1021,6 41 39 0,0
26.03.2017 19:00:00 13,7 0,7 13,6 14,6 11,1 7,7 23 13 34 18 NO 1020,8 39 60 0,0
26.03.2017 18:00:00 15,1 0,2 16,4 16,3 10,8 7,7 18 10 27 15 NO 1020,3 54 60 0,0
26.03.2017 17:00:00 15,4 0,2 17,5 17,3 10,3 7,7 17 9 28 15 NO 1020,2 40 60 0,0
26.03.2017 16:00:00 15,2 0,3 17,5 17,4 9,6 7,7 11 6 30 16 NO 1020,4 31 60 0,0
26.03.2017 15:00:00 14,9 0,7 17,7 16,6 8,8 7,7 18 10 29 15 NO 1021,1 33 60 0,0
26.03.2017 14:00:00 13,9 0,2 16,6 15,0 8,0 7,7 14 8 26 14 NO 1021,5 28 60 0,0
26.03.2017 13:00:00 12,3 -0,1 15,4 12,6 7,2 7,7 19 10 28 15 NO 1022,1 29 60 0,0
26.03.2017 12:00:00 11,1 -0,4 13,3 10,1 6,7 7,7 18 10 33 18 NO 1022,4 32 60 0,0
26.03.2017 11:00:00 9,9 -0,7 11,9 7,7 6,4 7,7 19 10 31 17 NO 1022,3 25 60 0,0
26.03.2017 10:00:00 8,0 -0,6 9,8 5,4 6,3 7,7 18 10 35 19 ONO 1022,6 28 60 0,0
26.03.2017 09:00:00 6,0 -0,5 6,8 4,0 6,5 7,7 23 12 31 17 NO 1022,9 27 45 0,0
26.03.2017 08:00:00 4,6 -0,8 2,9 3,8 6,7 7,7 22 12 35 19 NO 1022,5 29 0 0,0
26.03.2017 07:00:00 5,4 -1,1 3,8 4,1 6,9 7,7 26 14 35 19 NO 1021,8 28 0 0,0
26.03.2017 06:00:00 5,6 -1,2 3,9 4,3 7,1 7,7 24 13 31 17 NO 1021,7 29 0 0,0
26.03.2017 05:00:00 6,1 -1,5 4,0 4,6 7,4 7,7 22 12 31 17 NO 1021,2 36 0 0,0
26.03.2017 04:00:00 6,0 -1,7 3,8 5,0 7,6 7,7 16 9 31 17 NO 1020,9 36 0 0,0
26.03.2017 03:00:00 6,9 -1,7 5,2 5,3 7,9 7,7 23 12 39 21 NO 1021,0 44 0 0,0
26.03.2017 02:00:00 7,8 -1,7 5,9 5,7 8,2 7,7 30 16 41 22 NO 1020,8 42 0 0,0
26.03.2017 01:00:00 7,9 -1,8 5,7 6,2 8,5 7,7 23 12 36 19 NO 1020,7 48 0 0,0
26.03.2017 00:00:00 8,9 -1,5 6,9 6,8 8,8 7,7 25 13 41 22 NO 1020,7 47 0 0,0
25.03.2017 23:00:00 9,6 -0,8 7,7 7,4 9,1 7,7 26 14 39 21 NO 1020,7 43 0 0,0
25.03.2017 22:00:00 10,1 0,9 7,8 8,1 9,4 7,7 21 11 35 19 NO 1020,6 36 0 0,0
25.03.2017 21:00:00 10,9 1,0 8,8 8,9 9,7 7,7 23 12 54 29 NO 1020,0 34 0 0,0
25.03.2017 20:00:00 12,1 -2,2 10,2 10,2 9,9 7,7 31 17 64 34 NO 1019,4 54 44 0,0
25.03.2017 19:00:00 13,4 -2,8 12,8 11,8 9,9 7,7 31 17 63 34 NO 1019,2 57 60 0,0
25.03.2017 18:00:00 14,1 -3,8 14,6 13,3 9,8 7,7 46 25 70 38 NO 1019,2 40 60 0,0
25.03.2017 17:00:00 14,5 -0,8 15,9 14,4 9,4 7,7 34 18 66 35 NO 1020,0 25 60 0,0
25.03.2017 16:00:00 14,1 1,8 15,3 14,6 8,9 7,7 33 18 63 34 NO 1020,7 23 60 0,0
25.03.2017 15:00:00 13,6 1,9 15,5 14,1 8,3 7,7 35 19 56 31 NO 1021,5 22 60 0,0
25.03.2017 14:00:00 12,4 1,7 14,1 13,1 7,6 7,7 40 22 61 33 NO 1022,1 15 60 0,0
25.03.2017 13:00:00 11,5 1,7 13,5 11,3 7,0 7,7 39 21 60 33 ONO 1023,1 15 60 0,0
25.03.2017 12:00:00 10,4 3,2 12,1 9,2 6,6 7,7 32 17 53 29 NO 1023,8 14 60 0,0
25.03.2017 11:00:00 8,2 2,7 9,7 7,1 6,4 7,7 39 21 58 31 NO 1024,7 10 60 0,0
25.03.2017 10:00:00 7,2 3,2 8,2 5,4 6,3 7,7 34 19 53 28 NO 1025,1 11 60 0,0
25.03.2017 09:00:00 4,9 2,5 4,9 4,2 6,4 7,7 27 15 40 22 NO 1025,8 8 15 0,0
25.03.2017 08:00:00 4,5 2,4 3,2 4,0 6,6 7,7 26 14 45 25 NO 1026,2 7 0 0,0
25.03.2017 07:00:00 4,4 2,6 2,9 4,2 6,9 7,7 26 14 43 23 NO 1026,0 6 0 0,0
25.03.2017 06:00:00 4,7 2,5 3,3 4,6 7,1 7,7 30 16 45 24 NO 1026,3 6 0 0,0
25.03.2017 05:00:00 5,2 2,8 3,7 4,9 7,3 7,7 30 16 42 23 NO 1026,4 6 0 0,0
25.03.2017 04:00:00 5,6 2,9 4,0 5,3 7,5 7,7 28 15 42 23 NO 1027,0 7 0 0,0
25.03.2017 03:00:00 6,3 3,1 4,9 5,6 7,7 7,7 31 17 46 25 NO 1027,3 7 0 0,0
25.03.2017 02:00:00 6,6 3,5 5,3 5,9 7,9 7,7 31 17 44 24 NO 1027,3 7 0 0,0
25.03.2017 01:00:00 6,7 3,9 5,3 6,3 8,2 7,7 27 14 39 21 NO 1027,2 9 0 0,0
25.03.2017 00:00:00 7,3 4,0 5,8 6,7 8,4 7,7 24 13 35 19 NO 1027,4 10 0 0,0
24.03.2017 23:00:00 7,7 4,2 6,4 7,2 8,6 7,7 24 13 37 20 NO 1027,6 12 0 0,0
24.03.2017 22:00:00 7,9 4,5 6,5 7,7 8,9 7,7 24 13 30 16 NO 1027,0 12 0 0,0
24.03.2017 21:00:00 8,3 4,4 6,8 8,5 9,1 7,7 21 12 32 17 NO 1026,4 13 0 0,0
24.03.2017 20:00:00 9,3 4,6 8,0 9,5 9,2 7,7 23 12 39 21 ONO 1025,8 14 0 0,0
24.03.2017 19:00:00 10,1 4,9 9,4 10,5 9,2 7,7 27 15 44 24 NO 1025,2 15 0 0,0
24.03.2017 18:00:00 10,2 5,2 10,1 11,5 9,0 7,6 27 14 44 24 NO 1024,9 14 18 0,0
24.03.2017 17:00:00 10,2 4,8 11,8 12,4 8,6 7,6 26 14 44 24 NO 1025,2 14 59 0,0
24.03.2017 16:00:00 10,0 5,0 11,8 11,2 8,3 7,6 31 17 49 27 ONO 1024,8 10 15 0,0
24.03.2017 15:00:00 9,0 5,0 10,3 10,4 8,0 7,6 32 17 49 26 NO 1025,1 8 0 0,0
24.03.2017 14:00:00 9,1 5,2 10,7 9,6 7,8 7,6 30 16 49 26 NO 1025,1 7 0 0,0
24.03.2017 13:00:00 8,2 4,9 9,4 8,7 7,6 7,6 32 17 45 24 NO 1025,2 7 0 0,0
24.03.2017 12:00:00 7,8 4,9 8,5 7,9 7,6 7,6 28 15 42 23 NO 1025,0 7 0 0,0
24.03.2017 11:00:00 7,5 4,9 7,8 7,4 7,5 7,6 26 14 38 21 NO 1024,7 8 0 0,0
24.03.2017 10:00:00 7,2 5,0 7,3 6,9 7,5 7,6 24 13 48 26 ONO 1023,5 7 0 0,0
24.03.2017 09:00:00 6,9 4,9 6,8 6,7 7,6 7,6 33 18 50 27 NO 1022,8 7 0 0,0
24.03.2017 08:00:00 6,8 5,0 6,5 6,5 7,7 7,6 31 17 49 27 NO 1021,3 8 0 0,0
24.03.2017 07:00:00 6,3 5,2 5,9 6,3 7,8 7,6 27 15 51 28 NO 1021,7 7 0 0,0
24.03.2017 06:00:00 6,1 5,2 5,5 6,4 8,0 7,6 27 14 40 22 NO 1021,2 7 0 0,0
24.03.2017 05:00:00 6,3 5,4 5,2 6,6 8,2 7,6 23 13 29 16 NO 1020,9 8 0 0,0
24.03.2017 04:00:00 7,0 5,8 5,7 6,9 8,4 7,6 23 13 30 16 NO 1020,9 9 0 0,0
24.03.2017 03:00:00 7,6 5,9 6,0 7,3 8,6 7,6 17 9 35 19 NO 1020,5 10 0 0,0
24.03.2017 02:00:00 8,1 5,9 6,4 7,8 8,8 7,6 16 9 27 14 NO 1019,5 13 0 0,0
24.03.2017 01:00:00 8,9 6,2 7,4 8,3 9,0 7,6 17 9 27 15 NO 1019,0 16 0 0,0
24.03.2017 00:00:00 9,5 6,3 8,4 8,4 9,2 7,6 10 5 39 21 O 1018,5 17 0 0,0
23.03.2017 23:00:00 9,5 6,0 8,4 8,7 9,4 7,6 26 14 44 24 NO 1016,0 18 0 0,0
23.03.2017 22:00:00 9,9 6,0 8,7 9,3 9,7 7,6 28 15 40 22 NO 1015,0 18 0 0,0
23.03.2017 21:00:00 10,4 6,5 8,9 10,2 9,9 7,6 23 13 36 19 NO 1014,7 13 0 0,0
23.03.2017 20:00:00 11,2 6,3 9,8 11,3 10,0 7,6 23 12 41 22 NO 1014,0 15 0 0,0
23.03.2017 19:00:00 12,3 6,6 11,3 12,8 10,0 7,6 25 13 37 20 NO 1013,4 15 26 0,0
23.03.2017 18:00:00 13,8 6,9 15,1 14,0 9,7 7,6 22 12 35 19 NO 1013,0 20 47 0,0
23.03.2017 17:00:00 13,7 7,0 15,1 14,7 9,3 7,6 21 11 33 18 NNO 1013,1 22 20 0,0
23.03.2017 16:00:00 13,6 6,0 15,4 15,3 8,6 7,6 20 11 31 17 NO 1012,9 25 52 0,0
23.03.2017 15:00:00 12,8 5,8 15,3 13,6 8,0 7,6 18 10 33 18 NO 1013,6 21 13 0,0
23.03.2017 14:00:00 11,9 5,3 14,3 13,7 7,3 7,6 16 9 33 18 NO 1013,6 25 57 0,0
23.03.2017 13:00:00 10,8 5,8 13,6 11,8 6,6 7,6 17 9 28 15 NO 1013,7 13 60 0,0
23.03.2017 12:00:00 9,3 5,1 12,0 9,2 6,1 7,7 14 8 31 17 ONO 1014,0 14 60 0,0
23.03.2017 11:00:00 7,1 5,4 8,3 6,5 5,8 7,7 19 10 29 16 NO 1014,2 5 33 0,0
23.03.2017 10:00:00 4,5 4,4 4,9 4,7 5,8 7,7 18 10 24 13 NO 1014,4 2,5 3 0,0
23.03.2017 09:00:00 3,6 3,6 3,5 3,9 5,9 7,7 18 10 24 13 NO 1014,2 1,8 0 0,0
23.03.2017 08:00:00 3,0 3,0 2,2 3,6 6,1 7,7 16 8 21 12 NO 1013,8 1,1 0 0,0
23.03.2017 07:00:00 3,0 3,0 2,0 3,7 6,3 7,7 16 8 22 12 NO 1013,3 1,4 0 0,0
23.03.2017 06:00:00 3,1 3,1 1,7 3,9 6,5 7,7 14 8 21 11 NO 1013,1 2,2 0 0,0
23.03.2017 05:00:00 3,3 3,2 1,9 4,3 6,7 7,7 15 8 19 10 NO 1013,0 3,5 0 0,0
23.03.2017 04:00:00 3,8 3,3 2,4 4,7 6,9 7,7 14 7 21 12 ONO 1013,1 5 0 0,0
23.03.2017 03:00:00 3,6 3,1 2,4 5,2 7,1 7,7 15 8 23 12 NO 1013,2 6 0 0,0
23.03.2017 02:00:00 4,2 3,3 3,5 5,6 7,2 7,7 16 8 21 11 NO 1013,2 7 0 0,0
23.03.2017 01:00:00 - - - - - - - - - - - - - - -

tt = temperatuur
td = dauwpunt
tt 5cm = temperatuur 5cm
tt -5cm = temperatuur -5cm
tt -20cm = temperatuur -20cm
tt -100cm = temperatuur -100cm
ff = windsnelheid
fx = windstoten
dd = windrichting
ppp = luchtdruk
vv = zicht
sd = Zonneschijnduur
rr = neerslag

Weerstations in de omgeving